Flag for Guinea Weather past 2 weeks in Boké, Guinea

Now
81 °F

Passing clouds.


Feels Like: 87 °F
Forecast: N/A
Wind: 5 mph from West

Location: Conakry / Gbessia

Current Time: Jan 27, 2015 at 10:08:01 PM

Latest Report: Jan 27, 2015 at 9:00 PM


Visibility: N/A

Pressure: 29.89 "Hg

Humidity: 89%

Dew point: 77 °F

Location of BokéLocation

Historic Weather in Boké — Graph

°F

Boké temperature yesterday

Maximum temperature yesterday: 86 °F (at 1:00 PM)
Minimum temperature yesterday: 77 °F (at 1:00 AM)
Average temperature yesterday: 83 °F

Past Weeks' High & Low Weather Summary

 TemperatureHumidityPressure
High91 °F (Jan 27, 1:00 PM)100% (Jan 18, 4:00 AM)29.98 "Hg (Jan 18, 4:00 AM)
Low68 °F (Jan 15, 8:00 AM)33% (Jan 13, 1:00 PM)29.77 "Hg (Jan 24, 4:00 PM)
Average80 °F76%29.89 "Hg
* Reported Jan 12 8:00 PM — Jan 27 8:00 PM, Boké, Weather by CustomWeather, © 2014

Note: Actual official high and low records may vary slightly from our data, if they occured in-between our weather recording intervals... More about our weather records

Advertising

Boké weather history for previous 24 hours

 ConditionsComfort  
Time TempWeatherWind HumidityBarometerVisibility
8:00 PM
Jan 27
81 °FPassing clouds.7 mph84%29.86 "HgN/A
7:00 PM82 °FPassing clouds.7 mph74%29.83 "HgN/A
6:00 PM86 °FHaze.9 mph66%29.83 "Hg5 mi
5:00 PM88 °FHaze.7 mph59%29.80 "Hg4 mi
4:00 PM90 °FScattered clouds.9 mph55%29.83 "Hg3 mi
3:00 PM90 °FPartly sunny.9 mph49%29.83 "Hg3 mi
2:00 PM90 °FPartly sunny.9 mph46%29.86 "Hg3 mi
1:00 PM91 °FScattered clouds.5 mph34%29.89 "Hg3 mi
12:00 PM88 °FScattered clouds.7 mph43%29.92 "Hg3 mi
11:00 AM84 °FPartly sunny.7 mph62%29.95 "Hg3 mi
10:00 AM81 °FFog.7 mph79%29.95 "Hg2 mi
9:00 AM81 °FFog.5 mph74%29.95 "Hg2 mi
8:00 AM77 °FFog.5 mph83%29.92 "HgN/A
7:00 AM77 °FFog.5 mph83%29.89 "HgN/A
6:00 AM77 °FFog.2 mph89%29.89 "Hg2 mi
4:00 AM79 °FFog.2 mph89%29.89 "Hg2 mi
3:00 AM79 °FFog.2 mph89%29.92 "Hg2 mi
1:00 AM79 °FFog.2 mph89%29.95 "Hg2 mi
12:00 AM79 °FFog.No wind89%29.95 "Hg3 mi
11:00 PM
Jan 26
81 °FHaze.No wind79%29.92 "Hg3 mi
10:00 PM81 °FHaze.5 mph79%29.92 "Hg3 mi
Weather by CustomWeather, © 2014

See weather overviewHow to use our weather pages